Volver al catálogo

DELTA 1 DEB

ActivoSSO
NORAD 12169·DEBRIS·🇺🇸 United States

Lanzado Mar 5, 1978 desde Vandenberg Space Force Base

Loading…

Próximos Pases (próximas 24 horas)

TLE

ActualizadoSource: Space-Track

Época: Sep 14, 2026, 00:45 UTC

1 12169U 78026J   26257.03178498  .00000323  00000-0  12838-3 0  9997
2 12169  98.7005 283.1407 0067884 179.4367 210.6161 14.33961278373032

Sigue DELTA 1 DEB en tiempo real con AllMySat

Download on the App Store